Tracking 32142 objects as of 12-Nov-2025
HD Live streaming from Space Station
objects crossing your sky now

STARLINK-6153

Track STARLINK-6153 now!
10-day predictions
STARLINK-6153 is classified as:


NORAD ID: 56384
Int'l Code: 2023-061L
Perigee: 565.2 km
Apogee: 567.2 km
Inclination: 43.0 °
Period: 95.8 minutes
Semi major axis: 6937 km
RCS: Unknown
Launch date: May 4, 2023
Source: United States (US)
Launch site: AIR FORCE EASTERN TEST RANGE (AFETR)
Your satellite tracking list
Your tracking list is empty




NASA's NSSDC Master Catalog

Two Line Element Set (TLE):
1 56384U 23061L   25316.13317486 -.00000213  00000-0 -70155-6 0  9990
2 56384  43.0036 116.0131 0001424 273.6364  86.4315 15.02537336139071
Source of the keplerian elements: AFSPC